Regional Weather Roundup
Issued by NWS

Home | Current Version | Previous Version | Text Only | Print | Product List | Glossary On
Versions: 1 2 3 4 5 6 7 8 9 10 11 12 13 14 15 16 17 18 19 20 21 22 23 24 25 26 27 28 29 30 31 32 33
000
ASUS44 KBMX 281910
RWRAL

ALABAMA REGIONAL WEATHER ROUNDUP
NATIONAL WEATHER SERVICE BIRMINGHAM AL
200 PM CDT TUE MAR 28 2017

NOTE: "FAIR" INDICATES FEW OR NO CLOUDS BELOW 12,000 FEET
WITH NO SIGNIFICANT WEATHER AND/OR OBSTRUCTIONS TO VISIBILITY.

THE REMARK "TC" DENOTES TEMPERATURE IN DEGREES CELSIUS.

ALZ001>011-014-016>018-020-282000-
NORTH ALABAMA

CITY           SKY/WX    TMP DP  RH WIND       PRES   REMARKS
MUSCLE SHOALS  SUNNY     71  60  68 W3        30.01F
HUNTSVILLE     PTSUNNY   70  62  76 W6        30.01F
DECATUR        PTSUNNY   68  60  75 W8        30.02F
HALEYVILLE     FAIR      72  62  71 N5        30.02F
GADSDEN        MOSUNNY   78  61  55 NW12      29.98F
$$

ALZ012-013-022-023-030>036-040>044-282000-
WEST CENTRAL ALABAMA

CITY           SKY/WX    TMP DP  RH WIND       PRES   REMARKS
TUSCALOOSA     MOSUNNY   78  65  63 VRB3      29.98F
$$

ALZ015-024>027-033>036-040>044-282000-
CENTRAL ALABAMA

CITY           SKY/WX    TMP DP  RH WIND       PRES   REMARKS
BIRMINGHAM     MOSUNNY   78  63  59 W9        30.01F
MONTGOMERY     PTSUNNY   82  60  47 W8        29.99F
SHELBY CO ARPT LGT RAIN  72  68  87 SW7       30.00S
MAXWELL AFB    PTSUNNY   80  63  56 W7        29.98F
GREENVILLE     FAIR      80  58  46 SW8       29.98F
$$

ALZ019-021-028-029-037-038-045>048-282000-
EAST CENTRAL ALABAMA

CITY           SKY/WX    TMP DP  RH WIND       PRES   REMARKS
ANNISTON       PTSUNNY   79  64  60 W9        29.97F
ALEXANDER CITY SUNNY     76  63  63 SW7       29.99F
AUBURN         LGT RAIN  74  65  73 W6        30.01F
$$

ALZ051>064-282000-
SOUTHWEST ALABAMA

CITY           SKY/WX    TMP DP  RH WIND       PRES   REMARKS
MOBILE         PTSUNNY   82  65  56 S10G18    30.00F
BROOKLEY FIELD MOSUNNY   80  71  74 SE15      30.01F
EVERGREEN      MOSUNNY   83  61  47 SW7       30.00F
$$

ALZ049-050-065>069-282000-
SOUTHEAST ALABAMA

CITY           SKY/WX    TMP DP  RH WIND       PRES   REMARKS
DOTHAN         MOSUNNY   83  60  45 SW9       30.04F
OZARK          MOSUNNY   81  61  50 S8        30.00F
TROY           SUNNY     81  61  50 S9        30.00F
EUFAULA        FAIR      83  60  45 VRB6      29.98F
$$




USA.gov is the U.S. government's official web portal to all federal, state and local government web resources and services.